| time (UTC) | temp F | wind direction | speed knots | gust knots | rain 1hr in | rain 24hr in | rain mn in | humidity % | barometer mb |
| 20260509021542 | 59 | 0 | 0.0 | 0.0 | 0.00 | 0.00 | 0.00 | 90 | 1014.8 |
| 20260509020041 | 59 | 0 | 0.0 | 1.7 | 0.00 | 0.00 | 0.00 | 88 | 1014.7 |
| 20260509014544 | 61 | 0 | 0.0 | 0.0 | 0.00 | 0.00 | 0.00 | 84 | 1014.8 |
| 20260509013035 | 60 | 0 | 0.0 | 0.0 | 0.00 | 0.00 | 0.00 | 86 | 1014.6 |
| 20260509011542 | 60 | 0 | 0.0 | 0.9 | 0.00 | 0.00 | 0.00 | 87 | 1014.5 |
| 20260509010041 | 61 | 0 | 0.0 | 0.0 | 0.00 | 0.00 | 0.00 | 85 | 1014.4 |
| 20260509004541 | 61 | 0 | 0.0 | 0.0 | 0.00 | 0.00 | 0.00 | 85 | 1014.3 |
| 20260509003042 | 62 | 0 | 0.0 | 0.0 | 0.00 | 0.00 | 0.00 | 83 | 1014.1 |
| 20260509001542 | 62 | 0 | 0.0 | 5.2 | 0.00 | 0.00 | 0.00 | 83 | 1014.4 |
| 20260509000044 | 63 | 0 | 0.0 | 0.0 | 0.00 | 0.00 | 0.00 | 77 | 1014.2 |
| 20260508234546 | 63 | 0 | 0.0 | 0.0 | 0.00 | 0.00 | 0.00 | 78 | 1014.1 |
| 20260508233041 | 65 | 0 | 0.0 | 1.7 | 0.00 | 0.00 | 0.00 | 72 | 1014.1 |
| 20260508231621 | 65 | 0 | 0.0 | 1.7 | 0.00 | 0.00 | 0.00 | 72 | 1014.0 |
| 20260508230053 | 65 | 0 | 0.0 | 2.6 | 0.00 | 0.00 | 0.00 | 71 | 1014.1 |
| 20260508224539 | 66 | 248 | 0.0 | 3.5 | 0.00 | 0.00 | 0.00 | 74 | 1014.1 |
| 20260508223045 | 66 | 214 | 0.9 | 3.5 | 0.00 | 0.00 | 0.00 | 69 | 1014.2 |
| 20260508221542 | 67 | 238 | 0.0 | 2.6 | 0.00 | 0.00 | 0.00 | 71 | 1014.2 |
| 20260508220045 | 67 | 0 | 0.9 | 2.6 | 0.00 | 0.00 | 0.00 | 67 | 1014.1 |
| 20260508214559 | 68 | 215 | 0.9 | 4.3 | 0.00 | 0.00 | 0.00 | 69 | 1014.1 |
| 20260508213049 | 68 | 191 | 1.7 | 4.3 | 0.00 | 0.00 | 0.00 | 64 | 1014.0 |
| 20260508211543 | 68 | 187 | 1.7 | 5.2 | 0.00 | 0.00 | 0.00 | 63 | 1014.0 |
| 20260508210045 | 69 | 180 | 0.9 | 3.5 | 0.00 | 0.00 | 0.00 | 61 | 1014.2 |
| 20260508204542 | 69 | 210 | 2.6 | 6.1 | 0.00 | 0.00 | 0.00 | 58 | 1014.2 |
| 20260508203040 | 69 | 0 | 1.7 | 5.2 | 0.00 | 0.00 | 0.00 | 58 | 1014.3 |
| 20260508201539 | 69 | 186 | 1.7 | 6.1 | 0.00 | 0.00 | 0.00 | 59 | 1014.5 |
| 20260508200035 | 69 | 202 | 2.6 | 7.0 | 0.00 | 0.00 | 0.00 | 59 | 1014.6 |
| 20260508194553 | 69 | 171 | 2.6 | 7.0 | 0.00 | 0.00 | 0.00 | 57 | 1014.8 |
| 20260508193051 | 69 | 237 | 1.7 | 7.8 | 0.00 | 0.00 | 0.00 | 58 | 1015.3 |
| 20260508191542 | 69 | 198 | 2.6 | 6.1 | 0.00 | 0.00 | 0.00 | 57 | 1015.4 |
| 20260508190036 | 70 | 130 | 2.6 | 9.6 | 0.00 | 0.00 | 0.00 | 56 | 1015.5 |
| 20260508184535 | 70 | 299 | 0.9 | 8.7 | 0.00 | 0.00 | 0.00 | 55 | 1015.6 |
| 20260508183043 | 70 | 221 | 3.5 | 5.2 | 0.00 | 0.00 | 0.00 | 56 | 1015.8 |
| 20260508181549 | 68 | 24 | 2.6 | 8.7 | 0.00 | 0.00 | 0.00 | 57 | 1016.1 |
| 20260508180041 | 68 | 144 | 2.6 | 6.1 | 0.00 | 0.00 | 0.00 | 61 | 1016.2 |
| 20260508174540 | 69 | 70 | 3.5 | 7.0 | 0.00 | 0.00 | 0.00 | 58 | 1016.4 |
| 20260508173040 | 68 | 150 | 5.2 | 7.8 | 0.00 | 0.00 | 0.00 | 57 | 1016.6 |
| 20260508171538 | 68 | 173 | 2.6 | 7.8 | 0.00 | 0.00 | 0.00 | 56 | 1016.8 |
| 20260508170035 | 67 | 143 | 5.2 | 10.4 | 0.00 | 0.00 | 0.00 | 58 | 1016.9 |
| 20260508164535 | 68 | 73 | 3.5 | 8.7 | 0.00 | 0.00 | 0.00 | 60 | 1017.2 |
| 20260508163041 | 67 | 78 | 4.3 | 8.7 | 0.00 | 0.00 | 0.00 | 58 | 1017.5 |
| 20260508161542 | 66 | 146 | 4.3 | 10.4 | 0.00 | 0.00 | 0.00 | 59 | 1017.7 |
| 20260508160037 | 66 | 198 | 1.7 | 8.7 | 0.00 | 0.00 | 0.00 | 60 | 1017.9 |
| 20260508154535 | 66 | 165 | 2.6 | 8.7 | 0.00 | 0.00 | 0.00 | 63 | 1018.0 |
| 20260508153045 | 65 | 199 | 3.5 | 9.6 | 0.00 | 0.00 | 0.00 | 64 | 1018.2 |
| 20260508151543 | 64 | 219 | 1.7 | 7.8 | 0.00 | 0.00 | 0.00 | 67 | 1018.3 |
| 20260508150042 | 64 | 150 | 0.9 | 7.8 | 0.00 | 0.00 | 0.00 | 69 | 1018.2 |
| 20260508144541 | 63 | 90 | 5.2 | 8.7 | 0.00 | 0.00 | 0.00 | 69 | 1018.2 |
| 20260508143035 | 63 | 136 | 5.2 | 9.6 | 0.00 | 0.00 | 0.00 | 67 | 1018.1 |
| 20260508141536 | 62 | 139 | 4.3 | 8.7 | 0.00 | 0.00 | 0.00 | 69 | 1018.1 |
| 20260508140044 | 61 | 92 | 2.6 | 7.0 | 0.00 | 0.00 | 0.00 | 69 | 1018.3 |
| 20260508134535 | 61 | 55 | 3.5 | 7.8 | 0.00 | 0.01 | 0.00 | 70 | 1018.5 |
| 20260508133043 | 59 | 50 | 0.9 | 5.2 | 0.00 | 0.01 | 0.00 | 78 | 1018.5 |
| 20260508131541 | 58 | 0 | 0.9 | 2.6 | 0.00 | 0.01 | 0.00 | 82 | 1018.5 |
| 20260508130035 | 57 | 83 | 0.9 | 2.6 | 0.00 | 0.01 | 0.00 | 87 | 1018.5 |
| 20260508124542 | 55 | 0 | 0.0 | 2.6 | 0.00 | 0.13 | 0.00 | 90 | 1018.4 |
| 20260508123042 | 54 | 0 | 0.0 | 1.7 | 0.00 | 0.13 | 0.00 | 92 | 1018.0 |
| 20260508121543 | 53 | 0 | 0.0 | 1.7 | 0.00 | 0.13 | 0.00 | 93 | 1017.8 |
| 20260508120041 | 51 | 0 | 0.0 | 0.0 | 0.00 | 0.13 | 0.00 | 96 | 1017.7 |
| 20260508114535 | 50 | 0 | 0.0 | 0.0 | 0.00 | 0.37 | 0.00 | 96 | 1017.4 |
| 20260508113044 | 49 | 0 | 0.0 | 1.7 | 0.00 | 0.37 | 0.00 | 96 | 1017.2 |
| 20260508111557 | 49 | 0 | 0.0 | 0.9 | 0.00 | 0.37 | 0.00 | 96 | 1016.9 |
| 20260508110041 | 48 | 0 | 0.0 | 0.0 | 0.00 | 0.37 | 0.00 | 95 | 1016.4 |
| 20260508104539 | 48 | 0 | 0.0 | 0.0 | 0.00 | 0.42 | 0.00 | 95 | 1016.0 |
| 20260508103037 | 49 | 0 | 0.0 | 1.7 | 0.00 | 0.42 | 0.00 | 94 | 1015.9 |
| 20260508101536 | 49 | 311 | 0.0 | 2.6 | 0.00 | 0.42 | 0.00 | 93 | 1015.8 |
| 20260508100036 | 49 | 319 | 0.9 | 2.6 | 0.00 | 0.42 | 0.00 | 94 | 1015.5 |
| 20260508094545 | 49 | 0 | 0.0 | 0.0 | 0.00 | 0.43 | 0.00 | 93 | 1015.3 |
| 20260508093040 | 50 | 0 | 0.0 | 0.9 | 0.00 | 0.43 | 0.00 | 92 | 1015.3 |
| 20260508091544 | 51 | 94 | 0.0 | 2.6 | 0.00 | 0.43 | 0.00 | 91 | 1015.3 |
| 20260508090036 | 51 | 58 | 1.7 | 7.0 | 0.00 | 0.43 | 0.00 | 90 | 1015.0 |
| 20260508084534 | 51 | 296 | 3.5 | 6.1 | 0.00 | 0.45 | 0.00 | 89 | 1014.8 |
| 20260508083037 | 51 | 343 | 1.7 | 7.0 | 0.00 | 0.45 | 0.00 | 90 | 1014.6 |
| 20260508081548 | 52 | 302 | 2.6 | 5.2 | 0.00 | 0.45 | 0.00 | 90 | 1014.6 |
| 20260508080041 | 52 | 326 | 1.7 | 4.3 | 0.00 | 0.45 | 0.00 | 91 | 1014.5 |
| 20260508074541 | 52 | 339 | 2.6 | 4.3 | 0.00 | 0.58 | 0.00 | 92 | 1014.6 |
| 20260508073035 | 52 | 332 | 2.6 | 4.3 | 0.00 | 0.58 | 0.00 | 92 | 1014.9 |
| 20260508071536 | 53 | 333 | 1.7 | 6.1 | 0.00 | 0.58 | 0.00 | 92 | 1014.8 |
| 20260508070044 | 53 | 327 | 0.9 | 4.3 | 0.00 | 0.58 | 0.00 | 93 | 1014.7 |
| 20260508064542 | 53 | 303 | 0.9 | 3.5 | 0.00 | 0.70 | 0.00 | 93 | 1014.8 |
| 20260508063041 | 54 | 304 | 0.9 | 3.5 | 0.00 | 0.70 | 0.00 | 92 | 1014.5 |
| 20260508061538 | 54 | 0 | 0.0 | 0.0 | 0.00 | 0.70 | 0.00 | 92 | 1014.5 |
| 20260508060035 | 54 | 0 | 0.0 | 0.0 | 0.00 | 0.70 | 0.00 | 90 | 1014.7 |
| 20260508054544 | 53 | 0 | 0.0 | 0.9 | 0.00 | 1.03 | 0.00 | 91 | 1014.6 |
| 20260508053045 | 54 | 0 | 0.0 | 0.9 | 0.00 | 1.03 | 0.00 | 90 | 1014.8 |
| 20260508051546 | 55 | 286 | 0.9 | 2.6 | 0.00 | 1.03 | 0.00 | 87 | 1014.8 |
| 20260508050045 | 56 | 0 | 0.0 | 5.2 | 0.00 | 1.03 | 0.00 | 85 | 1014.7 |
| 20260508044543 | 56 | 319 | 1.7 | 2.6 | 0.00 | 1.25 | 0.00 | 85 | 1014.6 |
| 20260508043049 | 56 | 301 | 0.9 | 2.6 | 0.00 | 1.25 | 0.00 | 85 | 1014.5 |
| 20260508041541 | 56 | 311 | 1.7 | 3.5 | 0.00 | 1.25 | 0.00 | 84 | 1014.5 |
| 20260508040038 | 57 | 0 | 0.0 | 0.9 | 0.00 | 1.25 | 0.00 | 84 | 1014.4 |
| 20260508034539 | 57 | 0 | 0.0 | 2.6 | 0.00 | 1.33 | 1.25 | 82 | 1014.2 |
| 20260508033042 | 58 | 335 | 0.9 | 3.5 | 0.00 | 1.33 | 1.25 | 80 | 1014.2 |
| 20260508031542 | 59 | 278 | 1.7 | 6.1 | 0.00 | 1.33 | 1.25 | 78 | 1014.4 |
| 20260508030041 | 59 | 236 | 2.6 | 7.0 | 0.00 | 1.33 | 1.25 | 78 | 1014.1 |
| 20260508024541 | 60 | 287 | 0.9 | 2.6 | 0.00 | 1.37 | 1.25 | 78 | 1014.1 |
| 20260508023035 | 60 | 0 | 0.0 | 2.6 | 0.00 | 1.37 | 1.25 | 76 | 1013.9 |